Погода в Кинг-Уильямс-Таун

ЮАР     32°52′55″S   27°24′07″E
темп.,
°C
ветер,
м/с
пор.,
м/с
влажн.,
%
обл.,
%
осадки,
мм/ч
давл.,
гПа
погр.,
м
17 августа, ср
ср1723:00+14с213190 0.0 101111
02:00+13з22345 0.0 101018
05:00+11зсз22395 0.0 101014
08:00+14сз223927 0.0 101052
11:00+21зюз3425100 0.0 1009654
14:00+23ююз4622100 0.0 10061383
17:00+17юв345463 0.0 1007217
20:00+13с117298 0.0 101011
18 августа, чт
чт1823:00+12ссз22750 0.0 101016
02:00+11зсз22614 0.0 101118
05:00+11сз33495 0.0 101139
08:00+13з39565 0.0 1013608
11:00+17зюз69463 0.0 10131572
14:00+20зюз69325 0.0 10112328
17:00+16ююз69552 0.0 1011768
20:00+12зюз512760 0.0 1015632
19 августа, пт
пт1923:00+11з5117982 0.0 1016690
02:00+11з61180100 0.1 1016727
05:00+11з598473 0.5 1016615
08:00+12зюз5108371 1.6 1019947
11:00+16зюз6105273 0.2 10191687
14:00+15юз7962100 0.3 10171257
17:00+15юз485610 0.0 1016930
20:00+10з24800 0.0 1018132
20 августа, сб
сб2023:00+9сз22852 0.0 101635
02:00+9з387885 0.0 1015180
05:00+9зюз122272100 1.0 10181775
08:00+10з12236843 1.6 10212047
11:00+11зюз12206180 0.1 10232087
14:00+12зюз10175937 0.3 10231894
17:00+11з814628 0.1 10251516
20:00+10з613655 0.1 1027854
21 августа, вс
вс2123:00+9з613590 0.0 1027671
02:00+9зсз512561 0.0 1026414
05:00+7сз22630 0.0 102633
08:00+10ссз23540 0.0 1027114
11:00+18зсз36330 0.0 1025947
14:00+21зюз46260 0.0 10211510
17:00+16вюв34490 0.0 1022199
20:00+12с11600 0.0 102311